ZL1TQN Weather Reports


Display with metric or nautical units.
time (UTC)temp
F
wind
direction
speed
MPH
gust
MPH
rain 1hr
in
rain 24hr
in
rain mn
in
humidity
%
barometer
mb
20260906191505 59 336 2.0 9.0 0.03 0.03 0.03 94 1003.6
20260906190005 59 317 6.0 13.0 0.03 0.03 0.03 94 1003.6
20260906185505 59 325 5.0 13.0 0.03 0.03 0.03 93 1003.6
20260906185005 59 310 5.0 13.0 0.03 0.03 0.03 93 1003.6
20260906184505 59 310 4.0 13.0 0.02 0.02 0.02 93 1003.7
20260906184005 59 311 5.0 13.0 0.01 0.01 0.01 93 1003.7
20260906183505 59 344 3.0 9.0 0.01 0.01 0.01 92 1003.8
20260906183005 59 328 3.0 6.0 0.01 0.01 0.01 92 1003.7
20260906182505 59 348 3.0 8.0 0.00 0.00 0.00 92 1003.7
20260906181505 59 331 2.0 9.0 0.00 0.00 0.00 92 1003.8
20260906181005 59 316 3.0 10.0 0.00 0.00 0.00 92 1003.8
20260906180005 59 345 5.0 12.0 0.00 0.00 0.00 92 1003.7
20260906175505 59 341 3.0 12.0 0.00 0.00 0.00 92 1003.8
20260906175006 59 354 4.0 12.0 0.00 0.00 0.00 91 1003.9
20260906174505 59 311 6.0 12.0 0.00 0.00 0.00 91 1004.0
20260906174005 59 328 5.0 10.0 0.00 0.00 0.00 91 1004.0
20260906173506 59 309 3.0 7.0 0.00 0.00 0.00 91 1004.0
20260906173006 59 322 5.0 8.0 0.00 0.00 0.00 91 1004.0
20260906172505 59 307 3.0 13.0 0.00 0.00 0.00 92 1003.9
20260906172005 59 324 5.0 13.0 0.00 0.00 0.00 92 1004.0
20260906171506 59 324 3.0 10.0 0.00 0.00 0.00 92 1004.0
20260906171005 59 340 3.0 7.0 0.00 0.00 0.00 92 1004.1
20260906170006 59 3 2.0 8.0 0.00 0.00 0.00 92 1004.1
20260906165505 59 344 3.0 8.0 0.00 0.00 0.00 92 1004.1
20260906165005 59 356 1.0 7.0 0.00 0.00 0.00 92 1004.3
20260906164506 59 357 1.0 3.0 0.00 0.00 0.00 92 1004.4
20260906164005 59 8 1.0 3.0 0.00 0.00 0.00 92 1004.5
20260906163505 59 331 1.0 3.0 0.00 0.00 0.00 92 1004.6
20260906162506 59 342 3.0 9.0 0.00 0.00 0.00 92 1004.6
20260906162005 59 314 3.0 6.0 0.00 0.00 0.00 93 1004.6
20260906160005 59 323 3.0 9.0 0.00 0.00 0.00 93 1004.7
20260906155505 59 318 3.0 9.0 0.00 0.00 0.00 93 1004.7
20260906155005 59 323 4.0 9.0 0.00 0.00 0.00 93 1004.9
20260906154005 59 317 4.0 8.0 0.00 0.00 0.00 93 1005.1
20260906152005 59 342 3.0 12.0 0.00 0.00 0.00 93 1005.5
20260906151505 59 343 4.0 12.0 0.00 0.00 0.00 93 1005.6
20260906151005 59 326 4.0 9.0 0.00 0.00 0.00 93 1005.6
20260906150005 59 319 4.0 9.0 0.00 0.00 0.00 93 1005.7
20260906145005 59 312 4.0 9.0 0.00 0.00 0.00 93 1005.9
20260906144505 59 323 3.0 7.0 0.00 0.00 0.00 93 1005.9
20260906144005 59 301 3.0 7.0 0.00 0.00 0.00 93 1006.1
20260906143505 58 333 3.0 6.0 0.00 0.00 0.00 93 1006.1
20260906143005 58 318 2.0 10.0 0.00 0.00 0.00 93 1006.2
20260906142505 58 305 3.0 10.0 0.00 0.00 0.00 92 1006.3
20260906142005 58 315 6.0 10.0 0.00 0.00 0.00 93 1006.4
20260906141505 58 307 3.0 10.0 0.00 0.00 0.00 92 1006.6
20260906141005 59 318 4.0 12.0 0.00 0.00 0.00 92 1006.7
20260906140006 59 320 6.0 12.0 0.00 0.00 0.00 92 1006.9
20260906135505 58 311 5.0 12.0 0.00 0.00 0.00 92 1007.0
20260906135005 58 309 4.0 12.0 0.00 0.00 0.00 92 1007.1
20260906134504 58 308 5.0 10.0 0.00 0.00 0.00 92 1007.2
20260906134005 58 309 3.0 8.0 0.00 0.00 0.00 92 1007.2
20260906133504 58 319 5.0 8.0 0.00 0.00 0.00 92 1007.3
20260906133004 58 308 4.0 8.0 0.00 0.00 0.00 92 1007.3
20260906132505 58 335 2.0 6.0 0.00 0.00 0.00 92 1007.4
20260906132005 58 325 2.0 6.0 0.00 0.00 0.00 92 1007.6
20260906131505 58 323 3.0 9.0 0.00 0.00 0.00 92 1007.6
20260906131005 58 347 3.0 9.0 0.00 0.00 0.00 92 1007.7
20260906130004 58 338 4.0 9.0 0.00 0.00 0.00 92 1007.8
20260906125507 58 316 3.0 7.0 0.00 0.00 0.00 92 1007.9
20260906125005 58 343 3.0 5.0 0.00 0.00 0.00 91 1007.9
20260906124005 58 357 3.0 10.0 0.00 0.00 0.00 91 1007.8
20260906123005 58 318 4.0 7.0 0.00 0.00 0.00 91 1007.9
20260906122505 58 324 4.0 12.0 0.00 0.00 0.00 91 1008.0
20260906122004 58 312 4.0 12.0 0.00 0.00 0.00 91 1008.1
20260906120005 58 332 3.0 5.0 0.00 0.00 0.00 91 1008.2
20260906115504 58 320 3.0 5.0 0.00 0.00 0.00 91 1008.2
20260906115004 58 332 2.0 5.0 0.00 0.00 0.00 91 1008.2
20260906114504 58 326 3.0 6.0 0.00 0.00 0.00 91 1008.3
20260906114005 58 331 2.0 6.0 0.00 0.00 0.00 91 1008.4
20260906113505 58 330 3.0 5.0 0.00 0.00 0.00 92 1008.6
20260906113005 58 343 2.0 5.0 0.00 0.00 0.00 92 1008.7
20260906112005 58 341 2.0 6.0 0.00 0.00 0.00 91 1008.7
20260906110005 58 317 4.0 10.0 0.00 0.00 0.00 91 1008.9
20260906105504 58 320 4.0 10.0 0.00 0.00 0.00 91 1009.0
20260906105005 58 318 5.0 9.0 0.00 0.00 0.00 91 1009.1
20260906104505 58 319 5.0 9.0 0.00 0.00 0.00 91 1009.2
20260906104004 57 312 4.0 9.0 0.00 0.00 0.00 91 1009.2
20260906103504 57 322 3.0 6.0 0.00 0.00 0.00 91 1009.3
20260906103005 57 324 2.0 6.0 0.00 0.00 0.00 91 1009.3
20260906102004 57 334 2.0 6.0 0.00 0.00 0.00 91 1009.4
20260906101505 57 336 3.0 7.0 0.00 0.00 0.00 91 1009.4
20260906101005 57 338 3.0 7.0 0.00 0.00 0.00 90 1009.5
20260906100004 57 355 3.0 6.0 0.00 0.00 0.00 90 1009.8
20260906095504 57 331 2.0 5.0 0.00 0.00 0.00 90 1009.8
20260906095005 57 23 2.0 6.0 0.00 0.00 0.00 90 1009.9
20260906093505 56 354 1.0 3.0 0.00 0.00 0.00 90 1010.0
20260906093005 56 18 1.0 3.0 0.00 0.00 0.00 90 1010.0
20260906092505 56 13 0.0 0.0 0.00 0.00 0.00 89 1010.1
20260906092004 56 5 0.0 0.0 0.00 0.00 0.00 89 1010.2
20260906091505 56 5 0.0 0.0 0.00 0.00 0.00 89 1010.3
20260906090004 56 5 0.0 3.0 0.00 0.00 0.00 89 1010.4
20260906085504 56 10 1.0 3.0 0.00 0.00 0.00 89 1010.4
20260906085004 56 326 1.0 3.0 0.00 0.00 0.00 89 1010.4
20260906084504 55 308 1.0 3.0 0.00 0.00 0.00 90 1010.4
20260906084004 55 325 0.0 0.0 0.00 0.00 0.00 90 1010.4
20260906083504 55 67 0.0 0.0 0.00 0.00 0.00 89 1010.4
20260906082006 55 67 0.0 0.0 0.00 0.00 0.00 88 1010.4
20260906081506 55 67 0.0 0.0 0.00 0.00 0.00 88 1010.4
20260906081006 55 75 0.0 0.0 0.00 0.00 0.00 87 1010.4
20260906075506 55 12 0.0 3.0 0.00 0.00 0.00 87 1010.8
20260906075006 55 123 2.0 3.0 0.00 0.00 0.00 86 1010.9
20260906074506 55 90 2.0 3.0 0.00 0.00 0.00 85 1010.9
20260906074006 55 85 1.0 2.0 0.00 0.00 0.00 84 1010.9
20260906073506 55 69 1.0 2.0 0.00 0.00 0.00 84 1010.9
20260906073006 55 349 1.0 2.0 0.00 0.00 0.00 83 1010.9
20260906072506 55 236 0.0 2.0 0.00 0.00 0.00 82 1010.9
20260906072006 56 232 1.0 2.0 0.00 0.00 0.00 81 1011.1
20260906071506 56 312 1.0 2.0 0.00 0.00 0.00 82 1011.1
20260906071006 56 292 0.0 2.0 0.00 0.00 0.00 82 1011.2
20260906070006 56 285 1.0 3.0 0.00 0.00 0.00 81 1011.4
20260906065506 56 318 1.0 3.0 0.00 0.00 0.00 81 1011.4
20260906064506 56 315 1.0 3.0 0.00 0.00 0.00 81 1011.5
20260906064007 56 308 1.0 2.0 0.00 0.00 0.00 80 1011.5
20260906063507 57 318 1.0 2.0 0.00 0.00 0.00 78 1011.5
20260906063006 57 19 0.0 2.0 0.00 0.00 0.00 77 1011.5
20260906062006 57 19 1.0 2.0 0.00 0.00 0.00 76 1011.5
20260906061506 58 19 0.0 2.0 0.00 0.00 0.00 75 1011.4
20260906061007 58 19 1.0 2.0 0.00 0.00 0.00 75 1011.4
20260906060006 58 332 1.0 3.0 0.00 0.00 0.00 74 1011.4
20260906055506 59 301 2.0 3.0 0.00 0.00 0.00 73 1011.4
20260906055007 59 268 1.0 2.0 0.00 0.00 0.00 72 1011.5
20260906054007 59 268 1.0 6.0 0.00 0.00 0.00 72 1011.4
20260906053506 60 265 1.0 7.0 0.00 0.00 0.00 71 1011.4
20260906052506 60 273 4.0 10.0 0.00 0.00 0.00 71 1011.5
20260906052006 59 268 4.0 10.0 0.00 0.00 0.00 72 1011.6
20260906051506 59 288 2.0 7.0 0.00 0.00 0.00 73 1011.8
20260906045506 59 317 2.0 5.0 0.00 0.00 0.00 78 1011.6
20260906045006 59 321 2.0 5.0 0.00 0.00 0.00 78 1011.5
20260906044006 59 304 1.0 2.0 0.00 0.00 0.00 78 1011.6
20260906043506 59 328 0.0 3.0 0.00 0.00 0.00 78 1011.6
20260906042506 59 329 4.0 7.0 0.00 0.00 0.00 78 1011.7
20260906042007 59 304 4.0 7.0 0.00 0.00 0.00 78 1011.9
20260906040007 59 316 3.0 6.0 0.00 0.00 0.00 80 1012.1
20260906035006 59 310 2.0 6.0 0.00 0.00 0.00 79 1012.4
20260906034506 59 320 2.0 3.0 0.00 0.00 0.00 77 1012.4
20260906034006 60 321 1.0 3.0 0.00 0.00 0.00 76 1012.4
20260906033506 60 315 1.0 3.0 0.00 0.00 0.00 75 1012.4
20260906032506 60 7 2.0 3.0 0.00 0.00 0.00 75 1012.5
20260906031506 59 314 0.0 1.0 0.00 0.00 0.00 77 1012.6
20260906031006 59 352 0.0 1.0 0.00 0.00 0.00 78 1012.6
20260906030006 59 68 0.0 2.0 0.00 0.00 0.00 80 1012.9
20260906025506 58 331 0.0 3.0 0.00 0.00 0.00 81 1012.8
20260906025006 58 295 1.0 3.0 0.00 0.00 0.00 81 1012.9
20260906024506 58 288 1.0 3.0 0.00 0.00 0.00 82 1012.9
20260906024006 58 278 2.0 6.0 0.00 0.00 0.00 82 1013.0
20260906023507 58 316 2.0 6.0 0.00 0.00 0.00 82 1013.0
20260906023006 58 328 2.0 9.0 0.00 0.00 0.00 83 1013.1
20260906022506 58 316 3.0 9.0 0.00 0.00 0.00 81 1013.2
20260906022006 58 316 3.0 9.0 0.00 0.00 0.00 82 1013.1
20260906021505 58 307 5.0 8.0 0.00 0.00 0.00 82 1013.2
20260906020006 58 324 4.0 9.0 0.00 0.00 0.00 82 1013.3
20260906015007 58 319 3.0 9.0 0.00 0.00 0.00 81 1013.5
20260906014505 58 328 3.0 9.0 0.00 0.00 0.00 81 1013.5
20260906014006 58 316 3.0 9.0 0.00 0.00 0.00 81 1013.5
20260906013505 58 287 3.0 7.0 0.00 0.00 0.00 82 1013.5
20260906013006 58 328 2.0 7.0 0.00 0.00 0.00 82 1013.6
20260906012505 58 313 3.0 7.0 0.00 0.00 0.00 82 1013.6
20260906011506 57 318 2.0 7.0 0.00 0.00 0.00 84 1013.8
20260906010006 56 288 3.0 10.0 0.00 0.00 0.00 83 1014.3
20260906005506 57 300 4.0 12.0 0.00 0.00 0.00 80 1014.6
20260906005006 58 283 5.0 12.0 0.00 0.00 0.00 77 1014.6
20260906004506 59 275 3.0 12.0 0.00 0.00 0.00 74 1014.6
20260906003005 59 257 6.0 12.0 0.00 0.00 0.00 71 1014.7
20260906002506 60 304 4.0 12.0 0.00 0.00 0.00 71 1014.7
20260906002006 60 310 4.0 12.0 0.00 0.00 0.00 76 1014.9
20260906001507 60 306 6.0 12.0 0.00 0.00 0.00 77 1015.0
20260906001006 59 327 3.0 12.0 0.00 0.00 0.00 78 1015.0
20260906000005 60 339 5.0 12.0 0.00 0.00 0.00 75 1015.2
20260905235005 60 298 3.0 10.0 0.00 0.00 0.00 69 1015.2
20260905234006 60 290 4.0 13.0 0.00 0.00 0.00 69 1015.6
20260905233505 60 279 5.0 13.0 0.00 0.00 0.00 68 1015.7
20260905233006 60 274 4.0 13.0 0.00 0.00 0.00 69 1015.7
20260905232506 60 300 7.0 12.0 0.00 0.00 0.00 68 1015.9
20260905231505 60 265 4.0 10.0 0.00 0.00 0.00 74 1016.2
20260905231005 60 295 2.0 8.0 0.00 0.00 0.00 77 1016.2
20260905230007 59 355 3.0 7.0 0.00 0.00 0.00 78 1016.4
20260905225006 58 321 5.0 10.0 0.00 0.00 0.00 79 1016.6
20260905224507 58 312 4.0 9.0 0.00 0.00 0.00 77 1016.7
20260905224006 59 332 3.0 7.0 0.00 0.00 0.00 78 1016.7
20260905223505 58 301 5.0 8.0 0.00 0.00 0.00 78 1016.7
20260905223005 58 290 3.0 10.0 0.00 0.00 0.00 77 1016.7
20260905222505 58 279 5.0 10.0 0.00 0.00 0.00 78 1016.8
20260905222005 58 288 2.0 12.0 0.00 0.00 0.00 79 1016.8
20260905221505 57 276 3.0 12.0 0.00 0.00 0.00 79 1016.8
20260905221006 57 284 3.0 9.0 0.00 0.00 0.00 78 1017.0
20260905220005 57 291 4.0 10.0 0.00 0.00 0.00 78 1017.2
20260905215505 58 279 3.0 7.0 0.00 0.00 0.00 78 1017.2
20260905215006 57 291 2.0 9.0 0.00 0.00 0.00 79 1017.2
20260905214505 57 329 3.0 9.0 0.00 0.00 0.00 79 1017.3
20260905214006 57 301 3.0 5.0 0.00 0.00 0.00 78 1017.3
20260905213506 57 0 2.0 9.0 0.00 0.00 0.00 78 1017.4
20260905213006 57 295 2.0 9.0 0.00 0.00 0.00 79 1017.5
20260905212006 57 267 3.0 8.0 0.00 0.00 0.00 79 1017.5
20260905211506 57 296 4.0 10.0 0.00 0.00 0.00 79 1017.5
20260905210006 56 278 2.0 12.0 0.00 0.00 0.00 82 1017.4
20260905205506 56 312 5.0 12.0 0.00 0.00 0.00 81 1017.4
20260905205005 55 301 3.0 5.0 0.00 0.00 0.00 83 1017.4
20260905204505 55 280 2.0 5.0 0.00 0.00 0.00 83 1017.5
20260905204006 55 303 2.0 5.0 0.00 0.00 0.00 83 1017.6
20260905203506 54 281 2.0 7.0 0.00 0.00 0.00 84 1017.5
20260905203006 54 285 3.0 7.0 0.00 0.00 0.00 83 1017.5
20260905202505 54 295 2.0 6.0 0.00 0.00 0.00 84 1017.5
20260905202005 53 281 2.0 5.0 0.00 0.00 0.00 85 1017.5
20260905201505 53 279 3.0 5.0 0.00 0.00 0.00 85 1017.4
20260905200005 52 313 2.0 3.0 0.00 0.00 0.00 85 1017.4
20260905195506 52 302 0.0 2.0 0.00 0.00 0.00 85 1017.4
20260905195005 52 303 1.0 3.0 0.00 0.00 0.00 86 1017.4
20260905194506 51 276 1.0 5.0 0.00 0.00 0.00 85 1017.3
20260905194006 51 308 2.0 5.0 0.00 0.00 0.00 85 1017.2
20260905193005 51 286 1.0 3.0 0.00 0.00 0.00 86 1017.2
20260905192505 51 274 2.0 5.0 0.00 0.00 0.00 85 1017.2
20260905192006 51 265 2.0 6.0 0.00 0.00 0.00 86 1017.2